Location: Arcones
(41.1182°N, 3.7238°W)
Time: 23:34:34
(UTC+00:00)

IRIDIUM 106 - Pass Details

Date: 19 March 2026
Orbit: 776 x 780 km, 86.4° (Epoch: 13 April)

Event Time Altitude Azimuth Distance (km) Brightness Sun altitude
Exits shadow 20:53:29 48° 19° (NNE) 1,015 4.9 -27.7°
Drops below altitude 10° 20:57:15 10° 6° (N) 2,339 7.0 -28.3°
Sets 20:59:37 0° 5° (N) 3,270 7.8 -28.7°
